DAL202 KJFK-LGAV

Flight info

Callsign DAL202
Flight time N/A
Altitude 35000
Route MERIT DCT HFD DCT PUT DCT BOS DCT TUSKY N265B NICSO/M082F350 DCT 48N050W 49N040W 50N030W 51N020W DCT DINIM DCT ELSOX DCT LULOX/N0469F350 DCT LIZAD DCT JSY DCT TURDU DCT TADUP DCT TEPRI UN491 POGZI DCT GELTA DCT LUVAL DCT SHARA DCT DEVDI DCT RIPUS DCT RESIA DCT LABIN DCT SPL DCT VAKSU DCT KOFER DCT PINDO DCT PIKOS UL607 XORKI
Aircraft A339/H-SADE1E2E3GHIJ3J5M1P2RWXY/LB2D1

Departure

Time N/A
Airport John F. Kennedy International Airport (KJFK)

Arrival

Time 2026-05-06 01:15
Airport Athens Eleftherios Venizelos International Airport (LGAV)
Time Latitude Longitude Altitude Speed Heading
2026-05-05 23:36 45.57811 11.92099 34975 ft 488 kts 132°
2026-05-05 23:36 45.55855 11.96042 34971 ft 489 kts 132°
2026-05-05 23:37 45.51926 12.03946 34976 ft 490 kts 132°
2026-05-05 23:37 45.48001 12.11820 34972 ft 490 kts 132°
2026-05-05 23:38 45.44046 12.19737 34971 ft 490 kts 132°
2026-05-05 23:38 45.40127 12.27553 34966 ft 491 kts 132°
2026-05-05 23:39 45.36151 12.35466 34965 ft 490 kts 132°
2026-05-05 23:39 45.32210 12.43287 34961 ft 491 kts 132°
2026-05-05 23:40 45.28213 12.51196 34957 ft 492 kts 132°
2026-05-05 23:40 45.24251 12.59010 34959 ft 493 kts 131°
2026-05-05 23:41 45.20262 12.66863 34955 ft 491 kts 132°
2026-05-05 23:41 45.16271 12.74702 34953 ft 491 kts 133°
2026-05-05 23:42 45.12265 12.82539 34952 ft 491 kts 132°
2026-05-05 23:42 45.08277 12.90322 34951 ft 490 kts 132°
2026-05-05 23:43 45.04279 12.98100 34947 ft 491 kts 132°
2026-05-05 23:43 45.00278 13.05864 34947 ft 491 kts 132°
2026-05-05 23:44 44.96463 13.13946 34947 ft 497 kts 127°
2026-05-05 23:44 44.92865 13.22156 34947 ft 495 kts 127°
2026-05-05 23:45 44.89232 13.30419 34954 ft 497 kts 127°
2026-05-05 23:45 44.85587 13.38670 34958 ft 497 kts 127°
2026-05-05 23:46 44.81940 13.46909 34963 ft 497 kts 127°
2026-05-05 23:46 44.78304 13.55084 34967 ft 496 kts 127°
2026-05-05 23:47 44.74639 13.63306 34970 ft 497 kts 126°
2026-05-05 23:47 44.70967 13.71520 34972 ft 497 kts 127°
2026-05-05 23:48 44.67316 13.79668 34978 ft 497 kts 127°
2026-05-05 23:48 44.63626 13.87871 34977 ft 496 kts 127°
2026-05-05 23:49 44.59935 13.96049 34981 ft 498 kts 127°
2026-05-05 23:49 44.56250 14.04201 34984 ft 498 kts 127°
2026-05-05 23:50 44.52535 14.12397 34986 ft 498 kts 127°
2026-05-05 23:50 44.48846 14.20503 34987 ft 498 kts 127°
2026-05-05 23:51 44.45111 14.28698 34994 ft 499 kts 127°
2026-05-05 23:51 44.41396 14.36819 35002 ft 498 kts 126°
2026-05-05 23:52 44.37663 14.44957 35006 ft 498 kts 126°
2026-05-05 23:52 44.33938 14.53055 35007 ft 498 kts 126°
2026-05-05 23:53 44.30205 14.61144 35010 ft 498 kts 126°
2026-05-05 23:53 44.26453 14.69256 35008 ft 498 kts 126°
2026-05-05 23:54 44.22678 14.77397 35013 ft 498 kts 126°
2026-05-05 23:54 44.18928 14.85457 35013 ft 499 kts 126°
2026-05-05 23:55 44.15174 14.93507 35016 ft 499 kts 126°
2026-05-05 23:55 44.11395 15.01586 35019 ft 498 kts 126°
2026-05-05 23:56 44.07614 15.09651 35015 ft 497 kts 126°
2026-05-05 23:56 44.03838 15.17673 35024 ft 498 kts 126°
2026-05-05 23:57 44.00055 15.25700 35023 ft 498 kts 126°
2026-05-05 23:57 43.96256 15.33727 35023 ft 498 kts 126°
2026-05-05 23:58 43.92480 15.41694 35020 ft 500 kts 126°
2026-05-05 23:58 43.88644 15.49756 35016 ft 500 kts 126°
2026-05-05 23:59 43.84839 15.57738 35010 ft 500 kts 126°
2026-05-05 23:59 43.80982 15.65802 35011 ft 501 kts 126°
2026-05-06 00:00 43.77162 15.73773 35012 ft 501 kts 126°
2026-05-06 00:00 43.73290 15.81820 35014 ft 503 kts 126°
2026-05-06 00:01 43.69428 15.89829 35019 ft 504 kts 126°
2026-05-06 00:01 43.65559 15.97833 35027 ft 505 kts 126°
2026-05-06 00:02 43.61663 16.05866 35026 ft 505 kts 126°
2026-05-06 00:02 43.57759 16.13896 35033 ft 504 kts 126°
2026-05-06 00:03 43.53846 16.21919 35037 ft 505 kts 126°
2026-05-06 00:03 43.49869 16.29829 35039 ft 505 kts 130°
2026-05-06 00:04 43.45380 16.37208 35044 ft 503 kts 134°
2026-05-06 00:04 43.40752 16.44363 35043 ft 502 kts 134°
2026-05-06 00:05 43.33810 16.55077 35033 ft 504 kts 134°
2026-05-06 00:06 43.29156 16.62258 35040 ft 504 kts 134°
2026-05-06 00:06 43.24507 16.69414 35041 ft 504 kts 135°
2026-05-06 00:07 43.19836 16.76584 35041 ft 505 kts 135°
2026-05-06 00:07 43.15176 16.83727 35040 ft 506 kts 134°
2026-05-06 00:08 43.10484 16.90896 35041 ft 506 kts 135°
2026-05-06 00:08 43.05779 16.98061 35039 ft 506 kts 135°
2026-05-06 00:09 43.01094 17.05185 35041 ft 506 kts 135°
2026-05-06 00:09 42.96397 17.12307 35048 ft 506 kts 134°
2026-05-06 00:10 42.91702 17.19403 35047 ft 506 kts 134°
2026-05-06 00:10 42.86997 17.26506 35040 ft 507 kts 134°
2026-05-06 00:11 42.82258 17.33636 35054 ft 507 kts 134°
2026-05-06 00:11 42.77536 17.40728 35040 ft 507 kts 134°
2026-05-06 00:12 42.72827 17.47782 35042 ft 508 kts 134°
2026-05-06 00:12 42.68070 17.54890 35046 ft 508 kts 133°
2026-05-06 00:13 42.63339 17.61943 35046 ft 507 kts 133°
2026-05-06 00:13 42.58598 17.68999 35046 ft 507 kts 134°
2026-05-06 00:14 42.53841 17.76052 35046 ft 508 kts 134°
2026-05-06 00:14 42.49085 17.83088 35047 ft 507 kts 134°
2026-05-06 00:15 42.44333 17.90104 35048 ft 509 kts 134°
2026-05-06 00:15 42.39560 17.97137 35050 ft 509 kts 134°
2026-05-06 00:16 42.34779 18.04158 35054 ft 509 kts 134°
2026-05-06 00:16 42.29975 18.11200 35054 ft 508 kts 134°
2026-05-06 00:17 42.25198 18.18185 35055 ft 508 kts 134°
2026-05-06 00:17 42.20394 18.25189 35055 ft 509 kts 134°
2026-05-06 00:18 42.15619 18.32140 35056 ft 510 kts 134°
2026-05-06 00:18 42.10780 18.39164 35058 ft 510 kts 134°
2026-05-06 00:19 42.05992 18.46094 35056 ft 509 kts 134°
2026-05-06 00:19 42.01181 18.53084 35055 ft 510 kts 132°
2026-05-06 00:20 41.96574 18.60303 35058 ft 510 kts 131°
2026-05-06 00:20 41.91991 18.67528 35056 ft 512 kts 131°
2026-05-06 00:21 41.87471 18.74938 35057 ft 512 kts 130°
2026-05-06 00:21 41.82988 18.82332 35062 ft 513 kts 130°
2026-05-06 00:22 41.78511 18.89677 35063 ft 513 kts 129°
2026-05-06 00:22 41.73974 18.97084 35065 ft 513 kts 130°
2026-05-06 00:23 41.69478 19.04410 35065 ft 513 kts 130°
2026-05-06 00:23 41.64939 19.11775 35067 ft 513 kts 129°
2026-05-06 00:24 41.60396 19.19135 35071 ft 513 kts 129°
2026-05-06 00:24 41.55881 19.26431 35072 ft 514 kts 129°
2026-05-06 00:25 41.51321 19.33781 35078 ft 514 kts 129°
2026-05-06 00:25 41.46754 19.41126 35079 ft 515 kts 129°
2026-05-06 00:26 41.42190 19.48449 35083 ft 515 kts 129°
2026-05-06 00:26 41.37647 19.55715 35087 ft 515 kts 129°
2026-05-06 00:27 41.33070 19.63024 35091 ft 515 kts 129°
2026-05-06 00:27 41.28475 19.70340 35088 ft 515 kts 130°
2026-05-06 00:28 41.23895 19.77618 35088 ft 515 kts 129°
2026-05-06 00:28 41.19307 19.84890 35088 ft 516 kts 130°
2026-05-06 00:29 41.14719 19.92143 35090 ft 516 kts 129°
2026-05-06 00:29 41.10124 19.99391 35091 ft 516 kts 129°
2026-05-06 00:30 41.05484 20.06693 35091 ft 516 kts 129°
2026-05-06 00:30 41.00893 20.13900 35098 ft 516 kts 129°
2026-05-06 00:31 40.96254 20.21164 35105 ft 516 kts 129°
2026-05-06 00:31 40.91638 20.28379 35112 ft 515 kts 129°
2026-05-06 00:32 40.87026 20.35566 35111 ft 516 kts 129°
2026-05-06 00:32 40.82393 20.42770 35112 ft 516 kts 129°
2026-05-06 00:33 40.77755 20.49964 35117 ft 516 kts 129°
2026-05-06 00:33 40.73085 20.57192 35119 ft 517 kts 129°
2026-05-06 00:34 40.68433 20.64374 35006 ft 517 kts 129°
2026-05-06 00:34 40.63771 20.71554 35099 ft 518 kts 129°
2026-05-06 00:35 40.59100 20.78730 35117 ft 519 kts 129°
2026-05-06 00:35 40.54399 20.85937 35123 ft 519 kts 129°
2026-05-06 00:36 40.49697 20.93080 35123 ft 520 kts 131°
2026-05-06 00:36 40.44563 20.99729 35122 ft 521 kts 137°
2026-05-06 00:37 40.39115 21.05993 35119 ft 521 kts 138°
2026-05-06 00:37 40.33680 21.12214 35124 ft 521 kts 138°
2026-05-06 00:38 40.28236 21.18458 35126 ft 521 kts 138°
2026-05-06 00:38 40.22809 21.24676 35116 ft 520 kts 137°
2026-05-06 00:39 40.17365 21.30902 35115 ft 520 kts 137°
2026-05-06 00:39 40.11929 21.37105 35113 ft 521 kts 138°
2026-05-06 00:40 40.06481 21.43304 35117 ft 521 kts 137°
2026-05-06 00:40 40.01009 21.49520 35104 ft 521 kts 138°
2026-05-06 00:41 39.95548 21.55709 35109 ft 521 kts 138°
2026-05-06 00:41 39.90121 21.61845 35098 ft 521 kts 138°
2026-05-06 00:42 39.84649 21.68024 35100 ft 521 kts 138°
2026-05-06 00:42 39.79185 21.74178 35102 ft 520 kts 139°
2026-05-06 00:43 39.73731 21.80302 35104 ft 520 kts 139°
2026-05-06 00:43 39.68264 21.86428 35096 ft 520 kts 139°
2026-05-06 00:44 39.62791 21.92549 35088 ft 519 kts 139°
2026-05-06 00:44 39.57328 21.98644 34832 ft 520 kts 138°
2026-05-06 00:44 39.54611 22.01668 34585 ft 519 kts 138°
2026-05-06 00:45 39.51864 22.04726 34276 ft 518 kts 138°
2026-05-06 00:45 39.49156 22.07738 33838 ft 516 kts 138°
2026-05-06 00:45 39.46443 22.10752 33315 ft 515 kts 139°
2026-05-06 00:45 39.43716 22.13783 32750 ft 516 kts 139°
2026-05-06 00:46 39.40986 22.16807 32170 ft 515 kts 139°
2026-05-06 00:46 39.38277 22.19805 31595 ft 515 kts 139°
2026-05-06 00:46 39.35559 22.22814 31026 ft 515 kts 139°
2026-05-06 00:46 39.32879 22.25775 30435 ft 515 kts 139°
2026-05-06 00:47 39.30147 22.28789 29806 ft 515 kts 140°
2026-05-06 00:47 39.27414 22.31798 29195 ft 514 kts 139°
2026-05-06 00:47 39.24717 22.34768 28581 ft 514 kts 140°
2026-05-06 00:47 39.22009 22.37746 27965 ft 513 kts 140°
2026-05-06 00:48 39.19296 22.40727 27333 ft 512 kts 140°
2026-05-06 00:48 39.16608 22.43674 26706 ft 511 kts 140°
2026-05-06 00:48 39.13921 22.46619 26307 ft 506 kts 140°
2026-05-06 00:48 39.11239 22.49557 25909 ft 503 kts 140°
2026-05-06 00:49 39.08611 22.52429 25510 ft 499 kts 140°
2026-05-06 00:49 39.05967 22.55320 25077 ft 496 kts 140°
2026-05-06 00:49 39.03357 22.58169 24656 ft 492 kts 140°
2026-05-06 00:49 39.00748 22.61018 24215 ft 488 kts 140°
2026-05-06 00:50 38.98196 22.63798 23802 ft 484 kts 140°
2026-05-06 00:50 38.95613 22.66610 23379 ft 480 kts 140°
2026-05-06 00:50 38.93105 22.69337 22965 ft 477 kts 140°
2026-05-06 00:50 38.90587 22.72072 22543 ft 473 kts 140°
2026-05-06 00:51 38.88071 22.74802 22110 ft 469 kts 140°
2026-05-06 00:51 38.85617 22.77463 21691 ft 466 kts 140°
2026-05-06 00:51 38.83149 22.80138 21265 ft 462 kts 140°
2026-05-06 00:51 38.80710 22.82780 20845 ft 459 kts 140°
2026-05-06 00:52 38.78275 22.85413 20426 ft 455 kts 140°
2026-05-06 00:52 38.75869 22.88010 19999 ft 452 kts 140°
2026-05-06 00:52 38.73476 22.90593 19577 ft 448 kts 140°
2026-05-06 00:52 38.71123 22.93131 19159 ft 444 kts 140°
2026-05-06 00:53 38.68766 22.95670 18738 ft 441 kts 140°
2026-05-06 00:53 38.66443 22.98172 18328 ft 437 kts 140°
2026-05-06 00:53 38.64105 23.00687 17918 ft 434 kts 140°
2026-05-06 00:53 38.61816 23.03148 17518 ft 430 kts 140°
2026-05-06 00:54 38.59541 23.05591 17111 ft 427 kts 140°
2026-05-06 00:54 38.57279 23.08017 16701 ft 424 kts 140°
2026-05-06 00:54 38.55035 23.10423 16291 ft 420 kts 140°
2026-05-06 00:54 38.52822 23.12794 15892 ft 417 kts 140°
2026-05-06 00:55 38.50601 23.15171 15482 ft 414 kts 140°
2026-05-06 00:55 38.48416 23.17508 15078 ft 411 kts 140°
2026-05-06 00:55 38.46225 23.19850 14667 ft 408 kts 139°
2026-05-06 00:55 38.44054 23.22167 14263 ft 405 kts 139°
2026-05-06 00:56 38.41913 23.24452 13861 ft 402 kts 139°
2026-05-06 00:56 38.39766 23.26740 13460 ft 399 kts 139°
2026-05-06 00:56 38.37672 23.28969 13065 ft 396 kts 139°
2026-05-06 00:56 38.35564 23.31212 12663 ft 393 kts 139°
2026-05-06 00:57 38.33464 23.33444 12265 ft 390 kts 139°
2026-05-06 00:57 38.31393 23.35643 11888 ft 387 kts 139°
2026-05-06 00:57 38.29342 23.37821 11689 ft 378 kts 139°
2026-05-06 00:57 38.27357 23.39926 11622 ft 365 kts 139°
2026-05-06 00:58 38.25440 23.41959 11489 ft 355 kts 139°
2026-05-06 00:58 38.23586 23.43923 11443 ft 343 kts 139°
2026-05-06 00:58 38.21772 23.45842 11411 ft 332 kts 139°
2026-05-06 00:58 38.20036 23.47678 11309 ft 323 kts 139°
2026-05-06 00:59 38.18322 23.49475 11272 ft 313 kts 141°
2026-05-06 00:59 38.16406 23.50635 11180 ft 305 kts 169°
2026-05-06 00:59 38.14289 23.50586 10913 ft 303 kts 190°
2026-05-06 00:59 38.12231 23.50107 10625 ft 303 kts 191°
2026-05-06 01:00 38.10163 23.49609 10337 ft 302 kts 191°
2026-05-06 01:00 38.08107 23.49138 10053 ft 301 kts 190°
2026-05-06 01:00 38.06047 23.48690 9790 ft 300 kts 189°
2026-05-06 01:00 38.03975 23.48255 9575 ft 296 kts 189°
2026-05-06 01:01 38.02000 23.47847 9559 ft 285 kts 189°
2026-05-06 01:01 38.00076 23.47453 9524 ft 273 kts 189°
2026-05-06 01:01 37.98228 23.47074 9519 ft 261 kts 189°
2026-05-06 01:01 37.96482 23.46716 9474 ft 251 kts 189°
2026-05-06 01:02 37.94774 23.46365 9303 ft 246 kts 189°
2026-05-06 01:02 37.93103 23.46022 9097 ft 241 kts 189°
2026-05-06 01:02 37.91448 23.45682 8885 ft 236 kts 189°
2026-05-06 01:02 37.89851 23.45354 8681 ft 230 kts 189°
2026-05-06 01:03 37.88293 23.45035 8479 ft 225 kts 189°
2026-05-06 01:03 37.86769 23.44723 8274 ft 220 kts 189°
2026-05-06 01:03 37.85262 23.44414 8066 ft 215 kts 189°
2026-05-06 01:03 37.83802 23.44116 7871 ft 214 kts 189°
2026-05-06 01:04 37.82350 23.43819 7640 ft 210 kts 189°
2026-05-06 01:04 37.80913 23.43525 7414 ft 204 kts 189°
2026-05-06 01:04 37.79538 23.43244 7204 ft 199 kts 188°
2026-05-06 01:04 37.78182 23.43311 6967 ft 193 kts 161°
2026-05-06 01:05 37.77058 23.44144 6829 ft 189 kts 133°
2026-05-06 01:05 37.76363 23.45509 6647 ft 185 kts 105°
2026-05-06 01:05 37.76139 23.47090 6494 ft 182 kts 92°
2026-05-06 01:05 37.76026 23.48703 6333 ft 182 kts 91°
2026-05-06 01:06 37.75923 23.50281 6163 ft 182 kts 92°
2026-05-06 01:06 37.75808 23.51878 5993 ft 182 kts 92°
2026-05-06 01:06 37.75686 23.53460 5718 ft 183 kts 93°
2026-05-06 01:06 37.75555 23.55056 5430 ft 184 kts 93°
2026-05-06 01:07 37.75418 23.56673 5139 ft 184 kts 93°
2026-05-06 01:07 37.75281 23.58281 4842 ft 185 kts 94°
2026-05-06 01:07 37.75140 23.59910 4510 ft 188 kts 94°
2026-05-06 01:07 37.75000 23.61527 4258 ft 186 kts 94°
2026-05-06 01:08 37.74856 23.63161 4003 ft 185 kts 94°
2026-05-06 01:08 37.74717 23.64748 3758 ft 183 kts 94°
2026-05-06 01:08 37.74577 23.66334 3516 ft 182 kts 95°
2026-05-06 01:08 37.74440 23.67909 3306 ft 178 kts 95°
2026-05-06 01:09 37.74304 23.69446 3189 ft 177 kts 95°
2026-05-06 01:09 37.74226 23.71006 3071 ft 178 kts 88°
2026-05-06 01:09 37.74302 23.72570 2956 ft 176 kts 82°
2026-05-06 01:09 37.74460 23.74085 2838 ft 176 kts 81°
2026-05-06 01:10 37.74814 23.75548 2690 ft 173 kts 52°
2026-05-06 01:10 37.75684 23.76545 2581 ft 170 kts 33°
2026-05-06 01:10 37.76678 23.77363 2575 ft 170 kts 31°
2026-05-06 01:10 37.77666 23.78180 2575 ft 170 kts 32°
2026-05-06 01:11 37.78646 23.79037 2574 ft 170 kts 34°
2026-05-06 01:11 37.79607 23.79916 2574 ft 170 kts 34°
2026-05-06 01:11 37.80560 23.80814 2575 ft 170 kts 35°
2026-05-06 01:11 37.81500 23.81712 2575 ft 170 kts 35°
2026-05-06 01:12 37.82439 23.82613 2575 ft 170 kts 36°
2026-05-06 01:12 37.83416 23.83550 2593 ft 181 kts 36°
2026-05-06 01:12 37.84432 23.84524 2559 ft 186 kts 36°
2026-05-06 01:12 37.85472 23.85519 2503 ft 185 kts 36°
2026-05-06 01:13 37.86471 23.86475 2402 ft 175 kts 36°
2026-05-06 01:13 37.87425 23.87456 1924 ft 183 kts 37°
2026-05-06 01:13 37.88451 23.88442 1472 ft 188 kts 37°
2026-05-06 01:13 37.89498 23.89453 1075 ft 190 kts 35°
2026-05-06 01:14 37.91592 23.91367 460 ft 183 kts 37°
2026-05-06 01:14 37.92587 23.92314 285 ft 173 kts 37°
2026-05-06 01:14 37.93446 23.93121 268 ft 119 kts 34°
2026-05-06 01:15 37.93966 23.93616 275 ft 79 kts 37°
2026-05-06 01:15 37.94258 23.94024 280 ft 44 kts 75°
2026-05-06 01:15 37.94240 23.94245 285 ft 16 kts 154°
2026-05-06 01:15 37.94155 23.94213 284 ft 12 kts 228°
2026-05-06 01:16 37.94086 23.94136 282 ft 13 kts 213°
2026-05-06 01:16 37.93999 23.94063 281 ft 16 kts 216°
2026-05-06 01:16 37.93890 23.93964 280 ft 21 kts 214°
2026-05-06 01:16 37.93759 23.93842 278 ft 25 kts 218°
2026-05-06 01:17 37.93603 23.93686 272 ft 30 kts 218°
2026-05-06 01:17 37.93450 23.93548 269 ft 20 kts 216°
2026-05-06 01:17 37.93368 23.93543 267 ft 9 kts 125°
2026-05-06 01:17 37.93325 23.93613 266 ft 11 kts 128°
2026-05-06 01:18 37.93263 23.93713 266 ft 17 kts 128°
2026-05-06 01:18 37.93174 23.93862 268 ft 25 kts 126°
2026-05-06 01:18 37.93100 23.94052 275 ft 21 kts 73°
2026-05-06 01:18 37.93228 23.94165 280 ft 25 kts 47°
2026-05-06 01:19 37.93263 23.94336 288 ft 21 kts 126°
2026-05-06 01:19 37.93162 23.94492 292 ft 21 kts 130°
2026-05-06 01:19 37.93152 23.94572 294 ft 7 kts 37°
2026-05-06 01:19 37.93200 23.94603 295 ft 7 kts 26°
2026-05-06 01:20 37.93234 23.94607 296 ft 3 kts 325°
2026-05-06 01:20 37.93254 23.94587 296 ft 4 kts 317°
2026-05-06 01:20 37.93277 23.94554 296 ft 2 kts 309°
2026-05-06 01:20 37.93277 23.94552 296 ft 0 kts 309°